Date String (YYYY-MM-DD hh:mm:ss) UTC,Instrument flags,Ambient pressure (hPa),Sample flow (lpm),Bypass flow (lpm),Sample temperature (°C),Ambient temperature (°C),ASC tube jacket temperature (°C),LED temperature (°C),Box temperature (°C),Sample RH (%),Span deviation,Mass concentration (μg/m³),Mass concentration (μg/m³),Mass concentration (μg/m³)
DateTimeUTC,F1_M11,P_M11,Q1_M11,Q2_M11,T1_M11,T2_M11,T3_M11,T4_M11,T5_M11,U1_M11,ZSPAN_M11,X0_M11,X2_M11,X1_M11
2022-08-19 19:00:00,,0828.7,5.00,0.00,30.2,29.1,00.0,38.9,32.1,24.9,0000.0,0016.10,0007.55,0006.15
2022-08-19 19:01:00,,0828.7,5.01,0.00,30.2,29.2,00.0,38.9,32.2,24.9,0000.0,0016.32,0007.53,0006.14
2022-08-19 19:02:00,,0829.2,5.00,0.00,30.2,29.2,00.0,38.9,32.2,25.1,0000.0,0018.11,0007.52,0006.13
2022-08-19 19:03:00,,0828.8,5.00,0.00,30.2,28.8,00.0,38.9,32.0,25.4,0000.0,0018.13,0007.45,0006.09
2022-08-19 19:04:00,,0828.8,5.00,0.00,30.2,28.1,00.0,38.9,31.9,25.4,0000.0,0017.93,0007.38,0006.07
2022-08-19 19:05:00,,0829.0,4.99,0.00,30.1,27.9,00.0,38.9,31.8,24.4,0000.0,0018.73,0007.38,0006.06
2022-08-19 19:06:00,,0829.1,5.01,0.00,30.1,27.9,00.0,38.9,31.8,24.9,0000.0,0020.47,0007.40,0006.05
2022-08-19 19:07:00,,0829.2,5.00,0.00,30.0,28.0,00.0,38.8,31.8,24.8,0000.0,0021.77,0007.38,0006.03
2022-08-19 19:08:00,,0829.2,5.00,0.00,30.0,28.2,00.0,38.8,31.8,25.0,0000.0,0022.36,0007.42,0006.03
2022-08-19 19:09:00,,0828.8,5.00,0.00,30.0,28.4,00.0,38.8,31.9,25.1,0000.0,0022.66,0007.40,0006.06
2022-08-19 19:10:00,,0828.7,4.99,0.00,30.0,28.6,00.0,38.8,31.9,25.7,0000.0,0022.50,0007.39,0006.07
2022-08-19 19:11:00,,0828.7,5.00,0.00,30.1,28.7,00.0,38.8,32.0,24.9,0000.0,0022.61,0007.38,0006.07
2022-08-19 19:12:00,,0828.9,5.00,0.00,30.1,28.9,00.0,38.9,32.0,24.6,0000.0,0022.06,0007.40,0006.07
2022-08-19 19:13:00,,0829.1,5.01,0.00,30.2,29.0,00.0,38.9,32.1,24.9,0000.0,0020.50,0007.44,0006.06
2022-08-19 19:14:00,,0828.7,5.00,0.00,30.2,29.2,00.0,38.9,32.1,25.1,0000.0,0020.67,0007.49,0006.08
2022-08-19 19:15:00,,0828.7,5.00,0.00,30.2,29.2,00.0,38.9,32.2,24.8,0000.0,0021.14,0007.59,0006.09
2022-08-19 19:16:00,,0828.7,4.99,0.00,30.2,28.5,00.0,38.9,32.0,24.8,0000.0,0021.62,0007.59,0006.10
2022-08-19 19:17:00,,0828.8,5.01,0.00,30.1,27.9,00.0,38.9,31.8,24.6,0000.0,0019.91,0007.56,0006.11
2022-08-19 19:18:00,,0829.2,5.00,0.00,30.1,27.8,00.0,38.8,31.8,24.4,0000.0,0019.08,0007.56,0006.13
2022-08-19 19:19:00,,0829.1,4.99,0.00,30.0,27.9,00.0,38.8,31.7,24.4,0000.0,0019.14,0007.57,0006.14
2022-08-19 19:20:00,,0828.6,5.01,0.00,30.0,28.0,00.0,38.8,31.7,24.0,0000.0,0019.25,0007.56,0006.14
2022-08-19 19:21:00,,0829.0,5.00,0.00,30.0,28.2,00.0,38.8,31.8,24.6,0000.0,0019.04,0007.55,0006.13
2022-08-19 19:22:00,,0828.9,5.01,0.00,30.0,28.4,00.0,38.8,31.9,24.6,0000.0,0019.27,0007.60,0006.14
2022-08-19 19:23:00,,0829.0,5.00,0.00,30.0,28.6,00.0,38.8,31.9,24.2,0000.0,0019.44,0007.62,0006.13
2022-08-19 19:24:00,,0829.2,4.99,0.00,30.1,28.7,00.0,38.8,32.0,24.4,0000.0,0019.52,0007.60,0006.12
2022-08-19 19:25:00,,0829.3,5.00,0.00,30.1,28.9,00.0,38.8,32.0,24.6,0000.0,0018.89,0007.56,0006.11
2022-08-19 19:26:00,,0829.0,5.00,0.00,30.1,29.0,00.0,38.9,32.1,24.8,0000.0,0019.47,0007.51,0006.10
2022-08-19 19:27:00,,0829.2,4.99,0.00,30.2,29.2,00.0,38.9,32.1,25.0,0000.0,0018.87,0007.45,0006.09
2022-08-19 19:28:00,,0829.0,4.99,0.00,30.2,29.1,00.0,38.9,32.1,24.9,0000.0,0018.27,0007.42,0006.08
2022-08-19 19:29:00,,0829.2,5.01,0.00,30.2,28.4,00.0,38.9,31.9,24.9,0000.0,0017.43,0007.42,0006.07
2022-08-19 19:30:00,,0829.2,5.00,0.00,30.1,27.9,00.0,38.8,31.8,24.8,0000.0,0017.40,0007.37,0006.07
2022-08-19 19:31:00,,0829.1,5.00,0.00,30.1,27.8,00.0,38.8,31.8,24.9,0000.0,0017.68,0007.36,0006.06
2022-08-19 19:32:00,,0828.9,5.01,0.00,30.0,27.9,00.0,38.8,31.7,25.0,0000.0,0018.29,0007.37,0006.05
2022-08-19 19:33:00,,0828.7,4.99,0.00,30.0,28.1,00.0,38.8,31.8,25.7,0000.0,0018.01,0007.30,0006.04
2022-08-19 19:34:00,,0828.8,5.00,0.00,30.0,28.2,00.0,38.8,31.8,25.3,0000.0,0018.30,0007.29,0006.05
2022-08-19 19:35:00,,0828.7,4.99,0.00,30.0,28.4,00.0,38.8,31.9,25.1,0000.0,0017.93,0007.22,0006.06
2022-08-19 19:36:00,,0828.7,4.99,0.00,30.0,28.6,00.0,38.8,31.9,24.7,0000.0,0018.15,0007.27,0006.07
2022-08-19 19:37:00,,0828.7,5.01,0.00,30.1,28.8,00.0,38.8,32.0,24.8,0000.0,0018.21,0007.29,0006.09
2022-08-19 19:38:00,,0828.7,5.00,0.00,30.1,28.9,00.0,38.8,32.1,25.1,0000.0,0018.40,0007.35,0006.09
2022-08-19 19:39:00,,0828.8,4.99,0.00,30.1,29.1,00.0,38.8,32.1,25.3,0000.0,0018.78,0007.37,0006.10
2022-08-19 19:40:00,,0828.7,4.99,0.00,30.2,29.1,00.0,38.9,32.1,24.9,0000.0,0018.82,0007.35,0006.11
2022-08-19 19:41:00,,0828.8,5.00,0.00,30.2,28.6,00.0,38.8,32.0,24.6,0000.0,0018.12,0007.33,0006.12
2022-08-19 19:42:00,,0828.7,5.00,0.00,30.1,28.0,00.0,38.8,31.8,24.3,0000.0,0017.42,0007.37,0006.13
2022-08-19 19:43:00,,0828.7,5.00,0.00,30.0,27.8,00.0,38.8,31.8,24.7,0000.0,0016.80,0007.39,0006.15
2022-08-19 19:44:00,,0828.7,5.00,0.00,30.0,27.9,00.0,38.8,31.7,25.0,0000.0,0017.81,0007.43,0006.18
2022-08-19 19:45:00,,0828.7,5.01,0.00,29.9,28.0,00.0,38.7,31.7,25.0,0000.0,0018.60,0007.39,0006.18
2022-08-19 19:46:00,,0828.7,4.99,0.00,29.9,28.2,00.0,38.7,31.8,25.1,0000.0,0018.57,0007.44,0006.20
2022-08-19 19:47:00,,0828.7,4.99,0.00,30.0,28.3,00.0,38.7,31.8,24.9,0000.0,0018.84,0007.44,0006.20
2022-08-19 19:48:00,,0828.7,5.00,0.00,30.0,28.5,00.0,38.8,31.9,25.1,0000.0,0017.74,0007.44,0006.21
2022-08-19 19:49:00,,0828.7,5.01,0.00,30.0,28.7,00.0,38.8,32.0,24.8,0000.0,0017.43,0007.45,0006.22
2022-08-19 19:50:00,,0828.8,4.99,0.00,30.0,28.8,00.0,38.8,32.0,24.7,0000.0,0017.76,0007.45,0006.22
2022-08-19 19:51:00,,0828.9,5.00,0.00,30.1,29.0,00.0,38.8,32.1,24.4,0000.0,0017.87,0007.48,0006.23
2022-08-19 19:52:00,,0829.1,5.01,0.00,30.1,29.1,00.0,38.8,32.1,25.0,0000.0,0019.63,0007.50,0006.23
2022-08-19 19:53:00,,0828.7,5.00,0.00,30.1,28.7,00.0,38.8,32.0,25.0,0000.0,0020.31,0007.48,0006.24
2022-08-19 19:54:00,,0828.8,5.01,0.00,30.0,27.9,00.0,38.8,31.7,24.5,0000.0,0020.86,0007.49,0006.25
2022-08-19 19:55:00,,0828.9,4.99,0.00,30.0,27.6,00.0,38.7,31.7,24.6,0000.0,0020.15,0007.49,0006.25
2022-08-19 19:56:00,,0829.1,5.00,0.00,29.9,27.7,00.0,38.7,31.6,24.9,0000.0,0018.74,0007.52,0006.26
2022-08-19 19:57:00,,0828.8,5.01,0.00,29.9,27.8,00.0,38.7,31.6,24.5,0000.0,0018.63,0007.56,0006.25
2022-08-19 19:58:00,,0828.9,4.99,0.00,29.9,28.0,00.0,38.7,31.6,25.6,0000.0,0018.35,0007.54,0006.26
2022-08-19 19:59:00,,0828.9,4.99,0.00,29.9,28.1,00.0,38.7,31.7,25.5,0000.0,0018.79,0007.52,0006.25
